DMSP 5D-2 F11 DEB, 29070

Orbit data source: Space-Track

DMSP 5D-2 F11 DEB, 29070 is space debris in SSO originally from a launch on Thu, 28 Nov 1991 UTC launched from the Air Force Western Test Range (AFWTR). Debris objects in space refer to the collection of defunct objects orbiting the Earth. Examples of debris include non-operational satellites, rocket bodies, and fragments generated from explosions, collisions, or faulty payload assembly.

Loading next visibility...
Identifier
29070, 1991-082BR
Orbit
SSO
Country
Flag of USUS
Related business
Manufacturer
Unknown
Mission
Spacecraft
Bus & Motor
Unknown
Mass
Unknown
Launch date (UTC)
1991-11-28 (35 years ago)
Launch vehicle
Unknown
Launch site
Air Force Western Test Range (AFWTR)
Object type
Payload
Rocket body
Debris
Shape & HBR
Unknown shape, 0.1 m
Radar Cross Section
Small (<0.1 m²)

Expand to show TLE details & history
Last TLE update: 2 days ago

TLE from 2 days ago
0 DMSP 5D-2 F11 DEB
1 29070U 91082BR  26262.64197685  .00035626  00000-0  25384-2 0  9998
2 29070  98.5893  41.3834 0005001  63.2797 296.8938 15.04485659147144
Epoch: 2026-09-19T15:24Z
TLE epoch observation values (Epoch: 2026-09-19T15:24:26.799Z)
Latitude
Longitude
171.72415°
Altitude
554.551 km
Speed
7.585 km/s
True Right ascension
02h 45m 32s
True Declination
0° 00' 00"
Sunlit
Object was in full shadow at epoch
Visualization orbit readout
Latitude
Unknown
Longitude
Unknown
Altitude
Unknown
Speed
Unknown
Apparent Right ascension
Unknown
Apparent Declination
Unknown
Sunlit
N/A
Visualization observer readout
Local Sidereal Time
04:57:35
Azimuth
Unknown
Elevation
Unknown
Doppler factor
Unknown
Orbital elements
Apogee altitude
553.591 km
Perigee altitude
546.661 km
Semi-major axis
6,928.263 km
Eccentricity
0.0005
Inclination
98.5893°
RAAN
41.3834°
Arg. of periapsis
63.2797°
True anomaly
296.84268°
Mean anomaly
296.8938°
Eccentric anomaly
296.86824°
Mean motion
3.76363 °/min
Orbital period
95.65 mins
BSTAR
0.0025384
Loading maneuver chart data...
Computing Atmospheric mass density...

Documentation

Showing up to 5 results
|